Location: Newark
(42.9858°N, 0.6717°E)
Time: 21:23:56
(UTC+00:00)

Vanguard 1 Rocket - Visible Passes

Search period start: 16 November 2019 00:00
Search period end: 26 November 2019 00:00
Orbit: 651 x 4225 km, 34.3° (Epoch: 14 November)

Date Brightness Start Highest point End Pass type
(mag) Time Alt. Az. Time Alt. Az. Time Alt. Az.
16 Nov 8.4 05:21:55 14° SW 05:25:33 34° S 05:31:40 10° ESE visible
17 Nov 8.4 04:14:52 26° SSE 04:14:57 26° SSE 04:19:25 10° ESE visible
18 Nov 8.3 05:25:06 15° SW 05:28:26 34° S 05:34:19 10° ESE visible
19 Nov 8.2 04:18:01 28° SSE 04:18:01 28° SSE 04:22:20 10° ESE visible
20 Nov 8.3 05:28:13 16° WSW 05:31:21 32° S 05:36:55 10° ESE visible
21 Nov 8.2 04:21:06 29° SSE 04:21:06 29° SSE 04:25:11 10° ESE visible
22 Nov 8.4 05:31:18 15° WSW 05:34:17 28° S 05:39:24 10° SE visible
23 Nov 8.2 04:24:12 28° SSE 04:24:12 28° SSE 04:27:58 10° ESE visible
24 Nov 8.6 05:34:22 14° WSW 05:37:13 23° S 05:41:44 10° SE visible
25 Nov 8.3 04:27:16 26° S 04:27:16 26° S 04:30:39 10° SE visible
